This is the latest recevied weather packets stored in our database for station/object IK6IHU-3. If no packets are shown the sender has not sent any weather packets the latest 10 day(s).
| Time | Temp. | Humidity | Pressure | Rain* | Wind** | Luminosity | Snow |
|---|---|---|---|---|---|---|---|
| 1777453149 | 21.11° C | 50% | 1015 hPa | 0 mm | - | 0 W/m² | - |
| 1777453089 | 21.11° C | 47% | 1015.1 hPa | 0 mm | - | 0 W/m² | - |
| 1777453029 | 21.11° C | 47% | 1015 hPa | 0 mm | - | 0 W/m² | - |
| 1777452969 | 21.11° C | 49% | 1015 hPa | 0 mm | - | 0 W/m² | - |
| 1777452909 | 21.11° C | 48% | 1015.1 hPa | 0 mm | - | 0 W/m² | - |
| 1777452849 | 21.11° C | 48% | 1015 hPa | 0 mm | - | 0 W/m² | - |
| 1777452789 | 21.11° C | 47% | 1015.1 hPa | 0 mm | - | 0 W/m² | - |
| 1777452729 | 21.11° C | 47% | 1015 hPa | 0 mm | - | 0 W/m² | - |
| 1777452669 | 21.11° C | 47% | 1015.1 hPa | 0 mm | - | 0 W/m² | - |
| 1777452609 | 21.11° C | 47% | 1015 hPa | 0 mm | - | 0 W/m² | - |
| 1777452549 | 21.11° C | 48% | 1015 hPa | 0 mm | - | 0 W/m² | - |
| 1777452489 | 21.11° C | 47% | 1014.8 hPa | 0 mm | - | 0 W/m² | - |
| 1777452429 | 21.67° C | 48% | 1015 hPa | 0 mm | - | 0 W/m² | - |
| 1777452369 | 21.67° C | 48% | 1014.9 hPa | 0 mm | - | 0 W/m² | - |
| 1777452309 | 21.67° C | 49% | 1015.2 hPa | 0 mm | - | 0 W/m² | - |
| 1777452249 | 21.67° C | 49% | 1015.2 hPa | 0 mm | - | 0 W/m² | - |
| 1777452189 | 21.11° C | 47% | 1015.1 hPa | 0 mm | - | 0 W/m² | - |
| 1777452129 | 21.67° C | 49% | 1014.9 hPa | 0 mm | - | 0 W/m² | - |
| 1777452069 | 21.11° C | 47% | 1015 hPa | 0 mm | - | 0 W/m² | - |
| 1777452009 | 21.11° C | 47% | 1015 hPa | 0 mm | - | 0 W/m² | - |
| 1777451949 | 21.11° C | 47% | 1015 hPa | 0 mm | - | 0 W/m² | - |
| 1777451889 | 21.11° C | 47% | 1014.8 hPa | 0 mm | - | 0 W/m² | - |
| 1777451829 | 21.11° C | 47% | 1014.8 hPa | 0 mm | - | 0 W/m² | - |
| 1777451769 | 21.11° C | 47% | 1015 hPa | 0 mm | - | 0 W/m² | - |
| 1777451709 | 20.56° C | 46% | 1015 hPa | 0 mm | - | 0 W/m² | - |
* Rain latest hour (hover to see other rain measurements)
** Current wind speed in m/s (hover to see current wind gust speed)